TimeEDT,TemperatureF,Dew PointF,Humidity,Sea Level PressureIn,VisibilityMPH,Wind Direction,Wind SpeedMPH,Gust SpeedMPH,PrecipitationIn,Events,Conditions,WindDirDegrees,DateUTC
12:16 AM,71.2,61.9,72,30.01,10.0,SW,9.2,-,N/A,,Clear,220,2013-08-21 04:16:00
12:36 AM,72.1,61.7,70,30.01,10.0,SSW,8.1,-,N/A,,Clear,210,2013-08-21 04:36:00
12:55 AM,72.0,61.5,70,30.00,10.0,SSW,8.1,-,N/A,,Clear,210,2013-08-21 04:55:00
1:16 AM,71.6,61.7,71,30.00,10.0,SSW,9.2,-,N/A,,Clear,210,2013-08-21 05:16:00
1:35 AM,71.6,61.7,71,30.00,10.0,SSW,9.2,-,N/A,,Clear,210,2013-08-21 05:35:00
1:55 AM,71.6,61.7,71,30.00,10.0,SSW,10.4,16.1,N/A,,Clear,210,2013-08-21 05:55:00
2:16 AM,71.6,61.7,71,29.99,10.0,SSW,10.4,-,N/A,,Clear,210,2013-08-21 06:16:00
2:35 AM,71.1,61.7,72,29.99,10.0,SSW,11.5,-,N/A,,Clear,210,2013-08-21 06:35:00
2:55 AM,71.2,61.7,72,29.99,10.0,SSW,11.5,-,N/A,,Mostly Cloudy,210,2013-08-21 06:55:00
3:16 AM,71.6,61.9,71,29.98,10.0,SSW,9.2,-,N/A,,Overcast,210,2013-08-21 07:16:00
3:36 AM,72.0,62.1,71,29.98,10.0,SSW,9.2,-,N/A,,Overcast,210,2013-08-21 07:36:00
3:55 AM,72.0,62.4,72,29.98,10.0,SW,10.4,-,N/A,,Overcast,220,2013-08-21 07:55:00
4:16 AM,72.0,62.6,72,29.98,10.0,SSW,9.2,-,N/A,,Overcast,210,2013-08-21 08:16:00
4:35 AM,71.6,62.6,73,29.98,10.0,SSW,9.2,-,N/A,,Scattered Clouds,210,2013-08-21 08:35:00
4:55 AM,70.7,62.6,75,29.98,10.0,SSW,9.2,-,N/A,,Clear,210,2013-08-21 08:55:00
5:15 AM,70.5,62.6,76,29.98,10.0,SSW,9.2,-,N/A,,Clear,200,2013-08-21 09:15:00
5:35 AM,70.0,62.6,77,29.97,10.0,SSW,10.4,-,N/A,,Scattered Clouds,210,2013-08-21 09:35:00
5:56 AM,70.2,62.6,77,29.98,10.0,SSW,10.4,16.1,N/A,,Mostly Cloudy,210,2013-08-21 09:56:00
6:15 AM,70.3,62.6,76,29.97,10.0,SSW,10.4,16.1,N/A,,Mostly Cloudy,210,2013-08-21 10:15:00
6:36 AM,70.0,62.6,77,29.97,10.0,SSW,10.4,-,N/A,,Scattered Clouds,210,2013-08-21 10:36:00
6:55 AM,69.8,62.6,78,29.97,10.0,South,9.2,-,N/A,,Clear,190,2013-08-21 10:55:00
7:15 AM,69.4,62.8,79,29.97,10.0,SSW,8.1,-,N/A,,Clear,200,2013-08-21 11:15:00
7:36 AM,70.0,62.8,78,29.97,10.0,South,12.7,17.3,N/A,,Clear,190,2013-08-21 11:36:00
7:55 AM,70.3,63.0,77,29.97,10.0,SSW,9.2,-,N/A,,Clear,200,2013-08-21 11:55:00
8:15 AM,70.7,63.5,78,29.97,10.0,SSW,11.5,16.1,N/A,,Clear,200,2013-08-21 12:15:00
8:36 AM,71.6,63.7,76,29.98,10.0,SSW,9.2,16.1,N/A,,Scattered Clouds,210,2013-08-21 12:36:00
8:55 AM,72.9,64.0,74,29.98,10.0,SSW,11.5,18.4,N/A,,Mostly Cloudy,210,2013-08-21 12:55:00
9:15 AM,73.4,64.2,73,29.99,10.0,SSW,10.4,16.1,N/A,,Mostly Cloudy,210,2013-08-21 13:15:00
9:36 AM,74.5,64.6,71,29.98,10.0,SSW,10.4,-,N/A,,Overcast,210,2013-08-21 13:36:00
9:55 AM,75.6,64.8,69,29.97,10.0,SSW,9.2,-,N/A,,Mostly Cloudy,210,2013-08-21 13:55:00
10:15 AM,76.1,64.6,67,29.98,10.0,SW,10.4,-,N/A,,Overcast,220,2013-08-21 14:15:00
10:36 AM,77.5,64.8,65,29.97,10.0,SW,10.4,19.6,N/A,,Scattered Clouds,230,2013-08-21 14:36:00
10:55 AM,77.2,64.6,65,29.97,10.0,SW,13.8,21.9,N/A,,Mostly Cloudy,230,2013-08-21 14:55:00
11:16 AM,77.2,64.9,66,29.97,10.0,SW,11.5,20.7,N/A,,Overcast,220,2013-08-21 15:16:00
11:36 AM,76.8,65.1,67,29.96,10.0,SW,11.5,17.3,N/A,,Mostly Cloudy,220,2013-08-21 15:36:00
11:55 AM,77.5,65.1,65,29.97,10.0,WSW,15.0,23.0,N/A,,Scattered Clouds,240,2013-08-21 15:55:00
12:15 PM,77.4,65.1,66,29.97,10.0,WSW,10.4,21.9,N/A,,Clear,240,2013-08-21 16:15:00
12:36 PM,77.7,65.3,65,29.95,10.0,SW,15.0,24.2,N/A,,Clear,230,2013-08-21 16:36:00
12:55 PM,77.9,65.5,65,29.95,10.0,WSW,8.1,20.7,N/A,,Clear,240,2013-08-21 16:55:00
1:16 PM,77.2,65.7,67,29.93,10.0,SW,13.8,24.2,N/A,,Clear,230,2013-08-21 17:16:00
1:35 PM,77.9,66.2,67,29.93,10.0,WSW,13.8,20.7,N/A,,Clear,240,2013-08-21 17:35:00
1:55 PM,78.3,66.4,67,29.93,10.0,WSW,11.5,18.4,N/A,,Clear,250,2013-08-21 17:55:00
2:16 PM,78.6,66.6,66,29.91,10.0,SW,6.9,-,N/A,,Clear,230,2013-08-21 18:16:00
2:35 PM,79.0,66.9,66,29.91,10.0,SW,9.2,17.3,N/A,,Clear,230,2013-08-21 18:35:00
2:55 PM,79.7,66.9,65,29.91,10.0,WSW,10.4,16.1,N/A,,Clear,240,2013-08-21 18:55:00
3:16 PM,78.6,66.4,66,29.92,10.0,WSW,9.2,19.6,N/A,,Clear,250,2013-08-21 19:16:00
3:35 PM,77.2,66.2,69,29.91,10.0,WSW,9.2,17.3,N/A,,Clear,250,2013-08-21 19:35:00
3:55 PM,76.5,66.2,70,29.91,10.0,WSW,13.8,21.9,N/A,,Clear,250,2013-08-21 19:55:00
4:16 PM,73.9,66.2,77,29.90,10.0,WSW,13.8,25.3,N/A,,Clear,240,2013-08-21 20:16:00
4:35 PM,73.4,66.4,79,29.90,10.0,WSW,12.7,19.6,N/A,,Clear,240,2013-08-21 20:35:00
4:55 PM,75.6,66.9,74,29.89,10.0,WSW,9.2,19.6,N/A,,Clear,240,2013-08-21 20:55:00
5:16 PM,75.6,66.6,74,29.88,10.0,WSW,9.2,23.0,N/A,,Clear,240,2013-08-21 21:16:00
5:35 PM,75.2,66.2,73,29.89,10.0,WSW,12.7,21.9,N/A,,Clear,250,2013-08-21 21:35:00
5:55 PM,75.4,66.0,73,29.89,10.0,WSW,12.7,21.9,N/A,,Clear,250,2013-08-21 21:55:00
6:16 PM,74.1,66.0,76,29.89,10.0,WSW,11.5,20.7,N/A,,Clear,250,2013-08-21 22:16:00
6:35 PM,72.9,66.2,80,29.90,10.0,West,9.2,17.3,N/A,,Clear,260,2013-08-21 22:35:00
6:55 PM,72.5,66.2,81,29.90,10.0,WSW,5.8,-,N/A,,Clear,250,2013-08-21 22:55:00
7:16 PM,72.1,65.8,80,29.87,10.0,WSW,9.2,16.1,N/A,,Clear,250,2013-08-21 23:16:00
7:35 PM,71.6,66.2,83,29.87,10.0,WSW,11.5,19.6,N/A,,Clear,240,2013-08-21 23:35:00
7:56 PM,71.8,66.2,83,29.88,10.0,WSW,13.8,23.0,N/A,,Clear,240,2013-08-21 23:56:00
8:15 PM,72.9,65.8,79,29.89,10.0,WSW,10.4,23.0,N/A,,Clear,240,2013-08-22 00:15:00
8:35 PM,71.1,65.8,84,29.88,10.0,SW,13.8,21.9,N/A,,Clear,230,2013-08-22 00:35:00
8:56 PM,71.8,66.0,82,29.88,10.0,WSW,12.7,24.2,N/A,,Clear,240,2013-08-22 00:56:00
9:35 PM,70.9,66.0,85,29.85,10.0,WSW,15.0,24.2,N/A,Rain,Light Rain,250,2013-08-22 01:35:00
9:56 PM,71.4,65.5,81,29.87,10.0,WSW,16.1,26.5,N/A,,Clear,240,2013-08-22 01:56:00
10:15 PM,72.3,65.5,79,29.89,10.0,West,17.3,28.8,N/A,,Clear,260,2013-08-22 02:15:00
10:35 PM,72.5,64.0,75,29.90,10.0,WSW,13.8,28.8,N/A,,Clear,250,2013-08-22 02:35:00
10:56 PM,74.7,63.7,69,29.89,10.0,WSW,16.1,25.3,N/A,,Clear,250,2013-08-22 02:56:00
11:15 PM,73.6,63.0,69,29.90,10.0,West,15.0,18.4,N/A,,Clear,270,2013-08-22 03:15:00
11:35 PM,71.4,61.7,71,29.90,10.0,WNW,9.2,-,N/A,,Clear,290,2013-08-22 03:35:00
11:56 PM,69.8,62.1,76,29.92,10.0,WNW,9.2,-,N/A,,Clear,290,2013-08-22 03:56:00